Regional Weather Roundup
Issued by NWS Memphis, TN

Home | Current Version | Previous Version | Text Only | Print | Product List | Glossary On
Versions: 1 2 3 4 5 6 7 8 9 10 11 12 13 14 15 16 17 18 19 20 21 22 23 24 25 26 27 28 29 30 31 32 33 34 35 36 37 38 39 40 41 42 43 44 45 46 47 48 49 50
000
ASUS44 KMEG 230010
RWRMEG
MEMPHIS CWA HOURLY WEATHER ROUNDUP
NATIONAL WEATHER SERVICE MEMPHIS TN
700 PM CDT FRI MAY 22 2015

...WEST TENNESSEE...

CITY           SKY/WX    TMP DP  RH WIND       PRES   REMARKS
MEMPHIS INTL   CLOUDY    72  47  40 NE9       30.22F
6HR MIN TEMP:  70; 6HR MAX TEMP:  76;

NWS MEMPHIS      N/A     70 N/A N/A MISG        N/A
JACKSON        PTSUNNY   70  51  51 CALM      30.23S
6HR MIN TEMP:  69; 6HR MAX TEMP:  75;

LEXINGTON      CLEAR     68  50  52 CALM      30.24S
DYERSBURG      CLOUDY    70  43  37 CALM      30.24S
6HR MIN TEMP:  66; 6HR MAX TEMP:  72;

PARIS          SUNNY     66  48  52 E3        30.25F


...EASTERN ARKANSAS...

CITY           SKY/WX    TMP DP  RH WIND       PRES   REMARKS
JONESBORO      CLOUDY    66  51  58 E8        30.22F
6HR MIN TEMP:  66; 6HR MAX TEMP:  70;

WEST MEMPHIS   MOSUNNY   70  51  51 E10       30.21S
6HR MIN TEMP:  67; 6HR MAX TEMP:  74;

BATESVILLE     CLOUDY    66  52  59 E5        30.22F
6HR MIN TEMP:  66; 6HR MAX TEMP:  70;

NEWPORT        CLOUDY    68  54  60 E8        30.22F
6HR MIN TEMP:  66; 6HR MAX TEMP:  70;

WALNUT RIDGE   CLOUDY    68  48  49 E7        30.22F
6HR MIN TEMP:  64; 6HR MAX TEMP:  70;

BLYTHEVILLE    PTSUNNY   70  52  52 E3        30.23F
6HR MIN TEMP:  67; 6HR MAX TEMP:  72;

STUTTGART      CLOUDY    70  52  52 E8        30.21F
6HR MIN TEMP:  66; 6HR MAX TEMP:  72;

PINE BLUFF     PTSUNNY   70  53  54 E10       30.20S
6HR MIN TEMP:  67; 6HR MAX TEMP:  73;

MONTICELLO     MOSUNNY   72  53  51 E6        30.18F
6HR MIN TEMP:  68; 6HR MAX TEMP:  75;



...NORTH MISSISSIPPI...

CITY           SKY/WX    TMP DP  RH WIND       PRES   REMARKS
TUPELO         CLEAR     73  45  36 E8        30.21S
6HR MIN TEMP:  68; 6HR MAX TEMP:  76;

OXFORD         SUNNY     68  48  49 E7        30.23F
OLIVE BRANCH   PTSUNNY   70  48  46 E7        30.22F
TUNICA         MOSUNNY   70  52  52 E5        30.22S
CLARKSDALE     MOSUNNY   72  54  53 CALM      30.21F
CORINTH        CLEAR     70  48  46 NE5       30.22S
GREENWOOD      SUNNY     75  51  43 NE7       30.19F
6HR MIN TEMP:  71; 6HR MAX TEMP:  77;

COLUMBUS       CLEAR     77  51  39 N6        30.20S
6HR MIN TEMP:  73; 6HR MAX TEMP:  81;

STARKVILLE     FAIR      72  52  49 NE5       30.20S
GOLDEN TRIANGL CLEAR     73  52  46 NE6       30.20R


...SOUTHEAST MISSOURI...

CITY           SKY/WX    TMP DP  RH WIND       PRES   REMARKS
WEST PLAINS    CLOUDY    63  48  58 E3        30.26S
6HR MIN TEMP:  63; 6HR MAX TEMP:  66;

POPLAR BLUFF   CLOUDY    68  51  54 CALM      30.23F
6HR MIN TEMP:  67; 6HR MAX TEMP:  71;

CAPE GIRARDEAU CLOUDY    68  55  63 SW5       30.24F
6HR MIN TEMP:  67; 6HR MAX TEMP:  72;



...NORTHWEST ALABAMA...

CITY           SKY/WX    TMP DP  RH WIND       PRES   REMARKS
MUSCLE SHOALS  PTCLDY    73  47  39 NE3       30.23S
6HR MIN TEMP:  69; 6HR MAX TEMP:  76;



...MIDDLE TENNESSEE...

CITY           SKY/WX    TMP DP  RH WIND       PRES   REMARKS
NASHVILLE      PTCLDY    72  43  35 E3        30.26R
6HR MIN TEMP:  69; 6HR MAX TEMP:  76;

CLARKSVILLE    CLEAR     71  46  40 NE3       30.26R
6HR MIN TEMP:  69; 6HR MAX TEMP:  74;

COLUMBIA       CLEAR     72  45  37 NE5       30.24S


...WESTERN KENTUCKY...

CITY           SKY/WX    TMP DP  RH WIND       PRES   REMARKS
PADUCAH        PTSUNNY   70  50  49 CALM      30.23F
6HR MIN TEMP:  69; 6HR MAX TEMP:  75;

FORT CAMPBELL  CLEAR     69  51  53 N2        30.26R
6HR MIN TEMP:  67; 6HR MAX TEMP:  72; 6HR PCP: TRACE;



...CENTRAL ARKANSAS...

CITY           SKY/WX    TMP DP  RH WIND       PRES   REMARKS
LITTLE ROCK    CLOUDY    68  49  50 E7        30.22R
6HR MIN TEMP:  67; 6HR MAX TEMP:  72;



SKY/WX REPORTED AS FAIR MEANS FEW OR NO CLOUDS BELOW
12 THOUSAND FEET.



USA.gov is the U.S. government's official web portal to all federal, state and local government web resources and services.